• In Deutschland
  • Länderverzeichnis
  • Für 7 Tage
  • Wassertemperatur
  • Satellitenkarten
  • Wetterkarte
  • Widgets
  • user-avatar
    Anmelden

    Stündliche Wetter List

    Heute, 21 Januar, Sonntag

    Zeit Temperatur Niederschläge Wind Luftdruck Luftfeuchtigkeit
    00:00 +2°C° 0,3 mm 1 m/S 733 mmHg 94%
    01:00 +2°C° 0 mm 2 m/S 733 mmHg 91%
    02:00 +1°C° 0 mm 3 m/S 734 mmHg 91%
    03:00 0°C° 0 mm 3 m/S 735 mmHg 90%
    04:00 0°C° 0 mm 3 m/S 736 mmHg 89%
    05:00 -1°C° 0 mm 4 m/S 737 mmHg 89%
    06:00 -1°C° 0 mm 4 m/S 738 mmHg 88%
    07:00 +1°C° 0 mm 2 m/S 740 mmHg 87%
    08:00 0°C° 0 mm 3 m/S 741 mmHg 86%
    09:00 +1°C° 0 mm 3 m/S 742 mmHg 84%
    10:00 0°C° 0 mm 4 m/S 743 mmHg 82%
    11:00 0°C° 0 mm 4 m/S 743 mmHg 79%
    12:00 +2°C° 0 mm 3 m/S 744 mmHg 75%
    13:00 +2°C° 0 mm 3 m/S 744 mmHg 73%
    14:00 +3°C° 0 mm 2 m/S 745 mmHg 74%
    15:00 +3°C° 0 mm 2 m/S 745 mmHg 75%
    16:00 +4°C° 0 mm 1 m/S 745 mmHg 76%
    17:00 +3°C° 0 mm 1 m/S 745 mmHg 79%
    18:00 +2°C° 0 mm 1 m/S 745 mmHg 82%
    19:00 +2°C° 0 mm 1 m/S 745 mmHg 84%
    20:00 +2°C° 0 mm 1 m/S 745 mmHg 85%
    21:00 +1°C° 0 mm 1 m/S 745 mmHg 86%
    22:00 -1°C° 0 mm 2 m/S 744 mmHg 86%
    23:00 +1°C° 0,1 mm 2 m/S 743 mmHg 85%

    Morgen, 22 Januar, Montag

    Zeit Temperatur Niederschläge Wind Luftdruck Luftfeuchtigkeit
    00:00 +1°C° 0,1 mm 2 m/S 743 mmHg 84%
    01:00 +1°C° 0,1 mm 2 m/S 742 mmHg 83%
    02:00 +1°C° 0,5 mm 2 m/S 741 mmHg 85%
    03:00 0°C° 0,5 mm 3 m/S 740 mmHg 87%
    04:00 0°C° 0,5 mm 3 m/S 740 mmHg 90%
    05:00 0°C° 0,1 mm 3 m/S 740 mmHg 90%
    06:00 +1°C° 0,1 mm 2 m/S 739 mmHg 91%
    07:00 +1°C° 0,1 mm 2 m/S 739 mmHg 91%
    08:00 +2°C° 0,1 mm 2 m/S 739 mmHg 92%
    09:00 +2°C° 0,1 mm 2 m/S 739 mmHg 93%
    10:00 +2°C° 0,1 mm 2 m/S 739 mmHg 93%
    11:00 +3°C° 0,1 mm 2 m/S 739 mmHg 94%
    12:00 +5°C° 0,1 mm 1 m/S 739 mmHg 94%
    13:00 +6°C° 0,1 mm 1 m/S 739 mmHg 95%
    14:00 +6°C° 0 mm 1 m/S 740 mmHg 95%
    15:00 +5°C° 0 mm 2 m/S 741 mmHg 95%
    16:00 +6°C° 0 mm 2 m/S 741 mmHg 95%
    17:00 +6°C° 0 mm 2 m/S 742 mmHg 95%
    18:00 +5°C° 0 mm 2 m/S 743 mmHg 94%
    19:00 +5°C° 0 mm 2 m/S 743 mmHg 94%
    20:00 +5°C° 0,1 mm 2 m/S 744 mmHg 93%
    21:00 +5°C° 0,1 mm 2 m/S 745 mmHg 92%
    22:00 +4°C° 0,1 mm 3 m/S 746 mmHg 91%
    23:00 +4°C° 0 mm 3 m/S 746 mmHg 91%

    übermorgen, 23 Januar, Dienstag

    Zeit Temperatur Niederschläge Wind Luftdruck Luftfeuchtigkeit
    00:00 +3°C° 0 mm 3 m/S 747 mmHg 92%
    01:00 +3°C° 0 mm 3 m/S 747 mmHg 92%
    02:00 +4°C° 0 mm 2 m/S 748 mmHg 92%
    03:00 +4°C° 0 mm 2 m/S 748 mmHg 93%
    04:00 +4°C° 0 mm 2 m/S 749 mmHg 93%
    05:00 +3°C° 0 mm 2 m/S 749 mmHg 93%
    06:00 +4°C° 0 mm 1 m/S 749 mmHg 94%
    07:00 +4°C° 0 mm 1 m/S 749 mmHg 94%
    08:00 +4°C° 0 mm 1 m/S 750 mmHg 93%
    09:00 +3°C° 0 mm 2 m/S 750 mmHg 93%
    10:00 +4°C° 0 mm 2 m/S 751 mmHg 92%
    11:00 +5°C° 0 mm 2 m/S 750 mmHg 90%
    12:00 +6°C° 0 mm 2 m/S 750 mmHg 88%
    13:00 +5°C° 0 mm 3 m/S 750 mmHg 85%
    14:00 +5°C° 0 mm 3 m/S 750 mmHg 87%
    15:00 +7°C° 0 mm 2 m/S 750 mmHg 88%
    16:00 +7°C° 0 mm 2 m/S 750 mmHg 89%
    17:00 +6°C° 0,1 mm 2 m/S 750 mmHg 90%
    18:00 +5°C° 0,1 mm 3 m/S 750 mmHg 91%
    19:00 +5°C° 0,1 mm 3 m/S 750 mmHg 92%
    20:00 +7°C° 0,1 mm 3 m/S 750 mmHg 91%
    21:00 +7°C° 0,1 mm 3 m/S 750 mmHg 91%
    22:00 +6°C° 0,1 mm 4 m/S 750 mmHg 90%
    23:00 +6°C° 0 mm 4 m/S 750 mmHg 91%

    24 Januar, Mittwoch

    Zeit Temperatur Niederschläge Wind Luftdruck Luftfeuchtigkeit
    00:00 +6°C° 0 mm 4 m/S 749 mmHg 92%
    01:00 +6°C° 0 mm 4 m/S 749 mmHg 93%
    02:00 +7°C° 0 mm 4 m/S 749 mmHg 93%
    03:00 +7°C° 0 mm 4 m/S 749 mmHg 93%
    04:00 +7°C° 0 mm 4 m/S 749 mmHg 93%
    05:00 +7°C° 0 mm 4 m/S 749 mmHg 93%
    06:00 +7°C° 0 mm 4 m/S 749 mmHg 93%
    07:00 +7°C° 0 mm 4 m/S 749 mmHg 93%
    08:00 +7°C° 0 mm 4 m/S 749 mmHg 92%
    09:00 +7°C° 0 mm 4 m/S 749 mmHg 90%
    10:00 +7°C° 0 mm 4 m/S 749 mmHg 89%
    11:00 +8°C° 0 mm 4 m/S 749 mmHg 85%
    12:00 +10°C° 0 mm 4 m/S 748 mmHg 82%
    13:00 +10°C° 0 mm 5 m/S 748 mmHg 78%
    14:00 +11°C° 0 mm 4 m/S 747 mmHg 79%
    15:00 +11°C° 0 mm 4 m/S 747 mmHg 80%
    16:00 +11°C° 0 mm 3 m/S 747 mmHg 82%
    17:00 +10°C° 0 mm 4 m/S 746 mmHg 83%
    18:00 +10°C° 0 mm 4 m/S 746 mmHg 84%
    19:00 +8°C° 0 mm 4 m/S 746 mmHg 85%
    20:00 +8°C° 0 mm 4 m/S 745 mmHg 84%
    21:00 +8°C° 0 mm 4 m/S 745 mmHg 84%
    22:00 +8°C° 0 mm 4 m/S 745 mmHg 83%
    23:00 +8°C° 0 mm 4 m/S 744 mmHg 81%

    25 Januar, Donnerstag

    Zeit Temperatur Niederschläge Wind Luftdruck Luftfeuchtigkeit
    00:00 +8°C° 0 mm 4 m/S 744 mmHg 79%
    01:00 +8°C° 0 mm 4 m/S 743 mmHg 78%
    02:00 +8°C° 0,1 mm 4 m/S 743 mmHg 78%
    03:00 +8°C° 0,1 mm 5 m/S 743 mmHg 78%
    04:00 +8°C° 0,1 mm 5 m/S 743 mmHg 78%
    05:00 +8°C° 0,6 mm 5 m/S 743 mmHg 80%
    06:00 +8°C° 0,6 mm 5 m/S 743 mmHg 82%
    07:00 +8°C° 0,6 mm 5 m/S 742 mmHg 84%
    08:00 +8°C° 0,6 mm 5 m/S 743 mmHg 85%
    09:00 +8°C° 0,6 mm 5 m/S 743 mmHg 85%
    10:00 +8°C° 0,6 mm 5 m/S 743 mmHg 86%
    11:00 +8°C° 0,9 mm 4 m/S 743 mmHg 87%
    12:00 +7°C° 0,9 mm 4 m/S 743 mmHg 87%
    13:00 +8°C° 0,9 mm 3 m/S 743 mmHg 88%
    14:00 +8°C° 0,9 mm 2 m/S 742 mmHg 89%
    15:00 +8°C° 0,9 mm 2 m/S 742 mmHg 90%
    16:00 +7°C° 0,9 mm 2 m/S 742 mmHg 91%
    17:00 +8°C° 0,5 mm 1 m/S 742 mmHg 92%
    18:00 +8°C° 0,5 mm 1 m/S 742 mmHg 93%
    19:00 +7°C° 0,5 mm 1 m/S 742 mmHg 94%
    20:00 +7°C° 0,3 mm 1 m/S 742 mmHg 94%
    21:00 +7°C° 0,3 mm 1 m/S 742 mmHg 94%
    22:00 +7°C° 0,3 mm 1 m/S 743 mmHg 94%
    23:00 +7°C° 0,2 mm 1 m/S 743 mmHg 94%

    26 Januar, Freitag

    Zeit Temperatur Niederschläge Wind Luftdruck Luftfeuchtigkeit
    00:00 +6°C° 0,2 mm 1 m/S 743 mmHg 94%
    01:00 +6°C° 0,2 mm 1 m/S 743 mmHg 94%
    02:00 +6°C° 0 mm 1 m/S 743 mmHg 94%
    03:00 +6°C° 0 mm 1 m/S 743 mmHg 94%
    04:00 +5°C° 0 mm 0 m/S 743 mmHg 94%
    05:00 +4°C° 0,1 mm 0 m/S 743 mmHg 94%
    06:00 +5°C° 0,1 mm 1 m/S 743 mmHg 94%
    07:00 +5°C° 0,1 mm 1 m/S 744 mmHg 94%
    08:00 +5°C° 0,2 mm 1 m/S 744 mmHg 93%
    09:00 +6°C° 0,2 mm 1 m/S 744 mmHg 93%
    10:00 +6°C° 0,2 mm 1 m/S 745 mmHg 92%
    11:00 +6°C° 0,1 mm 1 m/S 745 mmHg 89%
    12:00 +7°C° 0,1 mm 1 m/S 745 mmHg 87%
    13:00 +6°C° 0,1 mm 2 m/S 746 mmHg 85%
    14:00 +6°C° 0 mm 2 m/S 746 mmHg 84%
    15:00 +6°C° 0 mm 2 m/S 746 mmHg 83%
    16:00 +6°C° 0 mm 2 m/S 746 mmHg 83%
    17:00 +6°C° 0 mm 2 m/S 747 mmHg 84%
    18:00 +5°C° 0 mm 2 m/S 747 mmHg 85%
    19:00 +4°C° 0 mm 2 m/S 748 mmHg 87%
    20:00 +4°C° 0 mm 2 m/S 748 mmHg 88%
    21:00 +4°C° 0 mm 2 m/S 749 mmHg 88%
    22:00 +4°C° 0 mm 1 m/S 749 mmHg 89%
    23:00 +4°C° 0 mm 1 m/S 750 mmHg 90%
    Mehr zeigen